YO8SDE Weather Reports


Display with metric or nautical units.
time (UTC)temp
F
wind
direction
speed
MPH
gust
MPH
rain 1hr
in
rain 24hr
in
rain mn
in
humidity
%
barometer
mb
20260508044020 55 112 3.0 4.0 0.00 0.00 0.00 83 1003.0
20260508043522 55 108 5.0 5.0 0.00 0.00 0.00 83 1003.0
20260508043021 55 80 2.0 3.0 0.00 0.00 0.00 83 1003.0
20260508042520 55 109 1.0 2.0 0.00 0.00 0.00 83 1003.0
20260508041640 54 105 2.0 4.0 0.00 0.00 0.00 84 1003.0
20260508041021 55 84 4.0 5.0 0.00 0.00 0.00 84 1003.0
20260508040529 55 90 3.0 3.0 0.00 0.00 0.00 83 1003.0
20260508040021 55 125 6.0 7.0 0.00 0.00 0.00 83 1003.0
20260508035520 55 115 1.0 2.0 0.00 0.00 0.00 83 1003.0
20260508035020 55 118 2.0 2.0 0.00 0.00 0.00 84 1003.0
20260508034520 54 132 4.0 5.0 0.00 0.00 0.00 84 1002.0
20260508034020 54 146 3.0 4.0 0.00 0.00 0.00 84 1002.0
20260508033521 54 85 3.0 3.0 0.00 0.00 0.00 84 1002.0
20260508033020 54 128 2.0 4.0 0.00 0.00 0.00 84 1002.0
20260508032520 54 113 1.0 2.0 0.00 0.00 0.00 84 1002.0
20260508032021 54 84 1.0 1.0 0.00 0.00 0.00 84 1002.0
20260508031520 54 86 3.0 4.0 0.00 0.00 0.00 84 1002.0
20260508031020 54 111 2.0 3.0 0.00 0.00 0.00 84 1002.0
20260508030522 54 72 3.0 3.0 0.00 0.00 0.00 84 1002.0
20260508030021 54 101 5.0 6.0 0.00 0.00 0.00 84 1002.0
20260508025520 55 85 2.0 3.0 0.00 0.00 0.00 83 1002.0
20260508025021 55 113 2.0 2.0 0.00 0.00 0.00 83 1002.0
20260508024521 55 118 3.0 4.0 0.00 0.00 0.00 83 1002.0
20260508024021 55 145 3.0 4.0 0.00 0.00 0.00 83 1002.0
20260508023521 55 166 3.0 4.0 0.00 0.00 0.00 83 1002.0
20260508023020 55 134 2.0 3.0 0.00 0.00 0.00 83 1002.0
20260508022521 55 111 2.0 3.0 0.00 0.00 0.00 83 1002.0
20260508022022 55 112 2.0 2.0 0.00 0.00 0.00 83 1002.0
20260508021521 55 116 2.0 4.0 0.00 0.00 0.00 83 1002.0
20260508021021 55 100 1.0 2.0 0.00 0.00 0.00 83 1001.0
20260508020523 55 99 0.0 0.0 0.00 0.00 0.00 83 1001.0
20260508020021 55 119 2.0 2.0 0.00 0.00 0.00 82 1002.0
20260508015520 55 117 1.0 2.0 0.00 0.00 0.00 82 1002.0
20260508015020 55 142 2.0 3.0 0.00 0.00 0.00 82 1002.0
20260508014521 56 129 1.0 1.0 0.00 0.00 0.00 81 1002.0
20260508014020 56 103 3.0 3.0 0.00 0.00 0.00 81 1002.0
20260508013521 56 105 1.0 2.0 0.00 0.00 0.00 81 1001.0
20260508013020 56 107 3.0 3.0 0.00 0.00 0.00 81 1001.0
20260508012522 56 130 1.0 1.0 0.00 0.00 0.00 81 1001.0
20260508012020 56 117 1.0 2.0 0.00 0.00 0.00 81 1002.0
20260508011521 56 167 2.0 2.0 0.00 0.00 0.00 81 1002.0
20260508011021 56 93 1.0 1.0 0.00 0.00 0.00 81 1001.0
20260508010520 56 90 2.0 3.0 0.00 0.00 0.00 81 1001.0
20260508010021 56 106 5.0 5.0 0.00 0.00 0.00 80 1001.0
20260508005520 56 126 3.0 4.0 0.00 0.00 0.00 81 1001.0
20260508005020 56 121 2.0 3.0 0.00 0.00 0.00 81 1001.0
20260508004523 56 130 1.0 3.0 0.00 0.00 0.00 81 1001.0
20260508004020 57 121 2.0 4.0 0.00 0.00 0.00 81 1001.0
20260508003520 57 135 2.0 3.0 0.00 0.00 0.00 81 1001.0
20260508003022 57 128 0.0 0.0 0.00 0.00 0.00 81 1001.0
20260508002522 57 147 2.0 2.0 0.00 0.00 0.00 80 1001.0
20260508002020 57 134 4.0 4.0 0.00 0.00 0.00 80 1001.0
20260508001521 57 141 1.0 2.0 0.00 0.00 0.00 80 1001.0
20260508001020 57 148 3.0 4.0 0.00 0.00 0.00 80 1001.0
20260508000521 57 123 3.0 4.0 0.00 0.00 0.00 80 1001.0
20260508000020 57 122 4.0 4.0 0.00 0.00 0.00 79 1001.0
20260507235527 58 143 3.0 4.0 0.00 0.00 0.00 79 1001.0
20260507235021 58 121 4.0 6.0 0.00 0.00 0.00 79 1001.0
20260507234521 58 93 4.0 4.0 0.00 0.00 0.00 79 1001.0
20260507234020 58 180 3.0 9.0 0.00 0.00 0.00 78 1001.0
20260507233520 58 176 4.0 7.0 0.00 0.00 0.00 78 1001.0
20260507233020 58 135 2.0 4.0 0.00 0.00 0.00 78 1001.0
20260507232521 58 144 2.0 6.0 0.00 0.00 0.00 78 1001.0
20260507232022 58 130 4.0 7.0 0.00 0.00 0.00 78 1001.0
20260507231521 58 82 4.0 7.0 0.00 0.00 0.00 78 1001.0
20260507231020 58 154 5.0 6.0 0.00 0.00 0.00 78 1001.0
20260507230037 58 100 2.0 5.0 0.00 0.00 0.00 77 1002.0
20260507225521 59 91 4.0 6.0 0.00 0.00 0.00 77 1002.0
20260507225020 59 103 3.0 5.0 0.00 0.00 0.00 76 1002.0
20260507224520 59 126 4.0 4.0 0.00 0.00 0.00 76 1002.0
20260507224020 59 122 4.0 4.0 0.00 0.00 0.00 76 1002.0
20260507223030 59 80 4.0 4.0 0.00 0.00 0.00 75 1002.0
20260507222521 59 148 2.0 3.0 0.00 0.00 0.00 75 1002.0
20260507222021 59 131 1.0 3.0 0.00 0.00 0.00 74 1002.0
20260507221521 59 91 4.0 7.0 0.00 0.00 0.00 74 1002.0
20260507220532 60 103 5.0 7.0 0.00 0.00 0.00 74 1002.0
20260507220020 60 90 4.0 4.0 0.00 0.00 0.00 74 1002.0
20260507215521 60 114 5.0 5.0 0.00 0.00 0.00 73 1002.0
20260507215021 60 185 3.0 5.0 0.00 0.00 0.00 73 1002.0
20260507214520 60 90 4.0 5.0 0.00 0.00 0.00 73 1001.0
20260507214021 60 126 4.0 5.0 0.00 0.00 0.00 73 1001.0
20260507213521 60 133 6.0 8.0 0.00 0.00 0.00 72 1001.0
20260507213022 60 177 2.0 6.0 0.00 0.00 0.00 72 1001.0
20260507212520 61 150 7.0 8.0 0.00 0.00 0.00 72 1001.0
20260507212020 61 97 6.0 12.0 0.00 0.00 0.00 71 1002.0
20260507211521 61 129 9.0 10.0 0.00 0.00 0.00 71 1002.0
20260507211020 61 90 7.0 8.0 0.00 0.00 0.00 70 1002.0
20260507210520 61 89 4.0 5.0 0.00 0.00 0.00 69 1002.0
20260507210021 61 87 1.0 1.0 0.00 0.00 0.00 70 1001.0
20260507205522 62 79 5.0 6.0 0.00 0.00 0.00 69 1001.0
20260507205021 62 172 6.0 9.0 0.00 0.00 0.00 69 1001.0
20260507204523 62 129 6.0 6.0 0.00 0.00 0.00 68 1001.0
20260507204027 62 140 9.0 9.0 0.00 0.00 0.00 68 1001.0
20260507203521 62 104 8.0 9.0 0.00 0.00 0.00 68 1001.0
20260507203020 62 140 3.0 4.0 0.00 0.00 0.00 67 1001.0
20260507202521 63 136 5.0 8.0 0.00 0.00 0.00 66 1001.0
20260507202021 63 152 9.0 9.0 0.00 0.00 0.00 66 1001.0
20260507201521 63 128 8.0 8.0 0.00 0.00 0.00 66 1001.0
20260507201020 63 130 3.0 4.0 0.00 0.00 0.00 65 1001.0
20260507200520 63 130 6.0 6.0 0.00 0.00 0.00 65 1001.0
20260507200021 63 140 6.0 6.0 0.00 0.00 0.00 65 1001.0
20260507195520 64 180 5.0 10.0 0.00 0.00 0.00 63 1001.0
20260507195020 64 166 5.0 6.0 0.00 0.00 0.00 63 1001.0
20260507194520 64 89 6.0 8.0 0.00 0.00 0.00 63 1001.0
20260507194020 64 171 8.0 8.0 0.00 0.00 0.00 62 1001.0
20260507193521 65 200 6.0 8.0 0.00 0.00 0.00 62 1001.0
20260507193020 65 147 5.0 11.0 0.00 0.00 0.00 61 1001.0
20260507192520 65 178 7.0 13.0 0.00 0.00 0.00 61 1001.0
20260507192020 65 104 8.0 8.0 0.00 0.00 0.00 60 1001.0
20260507191523 65 141 10.0 10.0 0.00 0.00 0.00 60 1001.0
20260507191021 66 116 11.0 15.0 0.00 0.00 0.00 60 1001.0
20260507190520 66 154 10.0 12.0 0.00 0.00 0.00 59 1001.0
20260507190021 66 135 4.0 12.0 0.00 0.00 0.00 59 1001.0
20260507185520 66 120 6.0 11.0 0.00 0.00 0.00 59 1001.0
20260507185020 67 148 8.0 12.0 0.00 0.00 0.00 58 1001.0
20260507184521 67 169 5.0 11.0 0.00 0.00 0.00 58 1001.0
20260507184020 67 182 5.0 13.0 0.00 0.00 0.00 58 1001.0
20260507183521 67 130 6.0 7.0 0.00 0.00 0.00 58 1001.0
20260507183021 67 109 6.0 6.0 0.00 0.00 0.00 58 1001.0
20260507182521 67 112 5.0 7.0 0.00 0.00 0.00 58 1001.0
20260507182021 68 177 6.0 9.0 0.00 0.00 0.00 57 1001.0
20260507181521 68 120 12.0 12.0 0.00 0.00 0.00 57 1001.0
20260507181021 68 196 8.0 11.0 0.00 0.00 0.00 57 1001.0
20260507180521 68 181 5.0 7.0 0.00 0.00 0.00 57 1001.0
20260507180022 68 133 9.0 12.0 0.00 0.00 0.00 56 1001.0
20260507175520 69 120 6.0 7.0 0.00 0.00 0.00 56 1001.0
20260507175022 69 124 5.0 10.0 0.00 0.00 0.00 55 1001.0
20260507174521 69 71 5.0 8.0 0.00 0.00 0.00 55 1001.0
20260507174022 69 159 4.0 8.0 0.00 0.00 0.00 54 1001.0
20260507173522 70 114 9.0 11.0 0.00 0.00 0.00 54 1001.0
20260507173021 70 122 6.0 6.0 0.00 0.00 0.00 54 1001.0
20260507172521 70 161 15.0 17.0 0.00 0.00 0.00 53 1001.0
20260507172020 71 105 7.0 12.0 0.00 0.00 0.00 52 1000.0
20260507171520 71 167 3.0 9.0 0.00 0.00 0.00 52 1000.0
20260507171020 71 148 6.0 7.0 0.00 0.00 0.00 51 1000.0
20260507170522 72 112 6.0 6.0 0.00 0.00 0.00 50 1000.0
20260507170021 72 162 9.0 11.0 0.00 0.00 0.00 49 1000.0
20260507165521 73 123 9.0 10.0 0.00 0.00 0.00 47 1000.0
20260507165020 73 114 7.0 12.0 0.00 0.00 0.00 47 1000.0
20260507164520 73 132 8.0 18.0 0.00 0.00 0.00 45 1000.0
20260507164021 73 180 8.0 13.0 0.00 0.00 0.00 45 1000.0
20260507163521 74 198 9.0 11.0 0.00 0.00 0.00 44 1000.0
20260507163020 74 147 2.0 4.0 0.00 0.00 0.00 44 1000.0
20260507162520 74 96 5.0 9.0 0.00 0.00 0.00 44 1000.0
20260507162021 74 112 9.0 16.0 0.00 0.00 0.00 43 1000.0
20260507161521 75 160 6.0 10.0 0.00 0.00 0.00 43 1000.0
20260507161020 75 142 6.0 7.0 0.00 0.00 0.00 42 1000.0
20260507160520 75 170 9.0 9.0 0.00 0.00 0.00 42 1000.0
20260507160020 75 177 7.0 11.0 0.00 0.00 0.00 42 1000.0
20260507155520 75 104 9.0 10.0 0.00 0.00 0.00 42 1000.0
20260507155020 75 157 5.0 5.0 0.00 0.00 0.00 42 1000.0
20260507154521 76 169 5.0 6.0 0.00 0.00 0.00 41 1000.0
20260507154020 76 127 7.0 7.0 0.00 0.00 0.00 40 1000.0
20260507153521 76 177 11.0 18.0 0.00 0.00 0.00 40 1000.0
20260507153020 77 149 7.0 12.0 0.00 0.00 0.00 39 1000.0
20260507152521 77 168 8.0 8.0 0.00 0.00 0.00 39 1000.0
20260507152021 78 114 4.0 6.0 0.00 0.00 0.00 38 1000.0
20260507151522 78 131 6.0 10.0 0.00 0.00 0.00 38 1000.0
20260507151020 78 183 8.0 9.0 0.00 0.00 0.00 37 1001.0
20260507150521 77 93 10.0 15.0 0.00 0.00 0.00 37 1001.0
20260507150022 78 95 8.0 8.0 0.00 0.00 0.00 37 1001.0
20260507145520 78 203 5.0 9.0 0.00 0.00 0.00 37 1001.0
20260507145021 78 152 7.0 16.0 0.00 0.00 0.00 37 1001.0
20260507144520 78 97 7.0 11.0 0.00 0.00 0.00 36 1001.0
20260507144020 78 104 3.0 5.0 0.00 0.00 0.00 36 1001.0
20260507143521 78 116 12.0 12.0 0.00 0.00 0.00 36 1001.0
20260507143022 78 131 15.0 18.0 0.00 0.00 0.00 36 1001.0
20260507142522 78 171 7.0 12.0 0.00 0.00 0.00 36 1001.0
20260507142021 78 166 5.0 18.0 0.00 0.00 0.00 37 1001.0
20260507141520 78 68 12.0 12.0 0.00 0.00 0.00 36 1001.0
20260507141021 78 16 6.0 12.0 0.00 0.00 0.00 35 1001.0
20260507140521 79 107 11.0 12.0 0.00 0.00 0.00 34 1001.0
20260507140021 79 117 8.0 12.0 0.00 0.00 0.00 34 1001.0
20260507135521 79 153 7.0 10.0 0.00 0.00 0.00 35 1001.0
20260507135021 79 160 10.0 11.0 0.00 0.00 0.00 34 1001.0
20260507134520 79 170 8.0 17.0 0.00 0.00 0.00 33 1001.0
20260507134020 78 167 9.0 16.0 0.00 0.00 0.00 33 1001.0
20260507133520 78 123 9.0 11.0 0.00 0.00 0.00 33 1001.0
20260507133020 79 173 10.0 10.0 0.00 0.00 0.00 33 1001.0
20260507132520 80 138 7.0 9.0 0.00 0.00 0.00 33 1001.0
20260507132020 79 143 7.0 10.0 0.00 0.00 0.00 33 1001.0
20260507131520 78 131 9.0 13.0 0.00 0.00 0.00 33 1001.0
20260507131022 78 118 11.0 14.0 0.00 0.00 0.00 32 1001.0
20260507130525 78 168 7.0 15.0 0.00 0.00 0.00 31 1001.0
20260507130022 79 132 11.0 13.0 0.00 0.00 0.00 32 1001.0
20260507125521 78 151 13.0 19.0 0.00 0.00 0.00 32 1001.0
20260507125021 79 190 7.0 11.0 0.00 0.00 0.00 33 1001.0
20260507124521 79 99 7.0 10.0 0.00 0.00 0.00 32 1001.0
20260507124022 78 164 12.0 13.0 0.00 0.00 0.00 32 1001.0
20260507123520 78 232 12.0 12.0 0.00 0.00 0.00 33 1001.0
20260507123021 78 129 13.0 21.0 0.00 0.00 0.00 33 1001.0
20260507122521 79 161 5.0 11.0 0.00 0.00 0.00 31 1001.0
20260507122020 79 131 5.0 7.0 0.00 0.00 0.00 32 1001.0
20260507121520 78 169 9.0 15.0 0.00 0.00 0.00 33 1001.0
20260507121021 78 113 8.0 8.0 0.00 0.00 0.00 33 1002.0
20260507120520 77 124 7.0 16.0 0.00 0.00 0.00 32 1002.0
20260507120021 78 136 6.0 7.0 0.00 0.00 0.00 32 1002.0
20260507115520 78 117 13.0 16.0 0.00 0.00 0.00 31 1002.0
20260507115020 80 146 7.0 11.0 0.00 0.00 0.00 30 1002.0
20260507114521 79 149 7.0 14.0 0.00 0.00 0.00 30 1002.0
20260507114020 80 190 6.0 8.0 0.00 0.00 0.00 30 1002.0
20260507113520 79 174 10.0 12.0 0.00 0.00 0.00 30 1002.0
20260507113020 79 203 5.0 12.0 0.00 0.00 0.00 30 1002.0
20260507112521 78 171 8.0 11.0 0.00 0.00 0.00 31 1002.0
20260507112023 79 147 7.0 10.0 0.00 0.00 0.00 30 1002.0
20260507111521 80 123 5.0 6.0 0.00 0.00 0.00 29 1002.0
20260507111021 79 223 5.0 13.0 0.00 0.00 0.00 31 1002.0
20260507110520 80 85 7.0 8.0 0.00 0.00 0.00 29 1002.0
20260507110020 78 182 9.0 15.0 0.00 0.00 0.00 30 1002.0
20260507105520 79 254 4.0 5.0 0.00 0.00 0.00 30 1002.0
20260507105021 79 219 9.0 15.0 0.00 0.00 0.00 29 1002.0
20260507104520 79 231 8.0 8.0 0.00 0.00 0.00 30 1002.0
20260507104021 78 188 8.0 9.0 0.00 0.00 0.00 29 1002.0
20260507103521 79 197 8.0 9.0 0.00 0.00 0.00 29 1002.0
20260507103021 78 204 9.0 9.0 0.00 0.00 0.00 29 1002.0
20260507102520 77 183 12.0 12.0 0.00 0.00 0.00 30 1003.0
20260507102021 79 135 7.0 11.0 0.00 0.00 0.00 29 1003.0
20260507101520 78 4 5.0 10.0 0.00 0.00 0.00 29 1003.0
20260507101021 77 134 3.0 9.0 0.00 0.00 0.00 30 1003.0
20260507100520 77 160 8.0 18.0 0.00 0.00 0.00 29 1003.0
20260507100021 78 125 7.0 9.0 0.00 0.00 0.00 29 1003.0
20260507095521 79 144 7.0 7.0 0.00 0.00 0.00 29 1003.0
20260507095020 77 127 13.0 17.0 0.00 0.00 0.00 29 1003.0
20260507094520 78 183 5.0 9.0 0.00 0.00 0.00 29 1003.0
20260507094020 77 151 12.0 12.0 0.00 0.00 0.00 29 1003.0
20260507093521 77 198 7.0 8.0 0.00 0.00 0.00 30 1003.0
20260507093020 77 218 4.0 10.0 0.00 0.00 0.00 30 1003.0
20260507092521 76 198 7.0 9.0 0.00 0.00 0.00 31 1003.0
20260507092020 76 148 5.0 14.0 0.00 0.00 0.00 31 1003.0
20260507091521 76 150 4.0 4.0 0.00 0.00 0.00 30 1003.0
20260507091021 76 207 7.0 10.0 0.00 0.00 0.00 31 1003.0
20260507090521 76 203 7.0 16.0 0.00 0.00 0.00 29 1003.0
20260507090021 77 234 8.0 8.0 0.00 0.00 0.00 29 1003.0
20260507085521 77 224 6.0 8.0 0.00 0.00 0.00 29 1003.0
20260507085020 76 132 5.0 12.0 0.00 0.00 0.00 29 1003.0
20260507084520 76 228 9.0 9.0 0.00 0.00 0.00 29 1003.0
20260507084020 77 140 4.0 5.0 0.00 0.00 0.00 28 1003.0
20260507083520 75 160 7.0 15.0 0.00 0.00 0.00 29 1003.0
20260507083021 76 102 8.0 8.0 0.00 0.00 0.00 28 1003.0
20260507082520 75 172 6.0 12.0 0.00 0.00 0.00 29 1003.0
20260507082020 76 90 4.0 6.0 0.00 0.00 0.00 29 1003.0
20260507081520 75 121 8.0 10.0 0.00 0.00 0.00 30 1003.0
20260507081023 75 141 9.0 11.0 0.00 0.00 0.00 31 1003.0
20260507080520 76 90 5.0 8.0 0.00 0.00 0.00 31 1003.0
20260507080021 75 164 4.0 4.0 0.00 0.00 0.00 31 1003.0
20260507075521 75 181 4.0 5.0 0.00 0.00 0.00 31 1003.0
20260507075020 74 254 8.0 8.0 0.00 0.00 0.00 31 1003.0
20260507074521 74 129 9.0 9.0 0.00 0.00 0.00 33 1003.0
20260507074021 74 180 6.0 10.0 0.00 0.00 0.00 32 1003.0
20260507073521 74 94 5.0 12.0 0.00 0.00 0.00 33 1003.0
20260507073020 73 186 8.0 8.0 0.00 0.00 0.00 33 1003.0
20260507072520 73 134 8.0 9.0 0.00 0.00 0.00 33 1003.0
20260507072021 73 114 6.0 8.0 0.00 0.00 0.00 34 1003.0
20260507071520 73 171 5.0 7.0 0.00 0.00 0.00 35 1003.0
20260507071021 72 112 9.0 12.0 0.00 0.00 0.00 35 1003.0
20260507070521 72 158 9.0 11.0 0.00 0.00 0.00 34 1003.0
20260507070024 71 204 7.0 8.0 0.00 0.00 0.00 35 1003.0
20260507065520 71 156 6.0 10.0 0.00 0.00 0.00 36 1003.0
20260507065021 71 222 8.0 9.0 0.00 0.00 0.00 36 1003.0
20260507064521 71 162 8.0 8.0 0.00 0.00 0.00 37 1003.0
20260507064020 71 102 3.0 4.0 0.00 0.00 0.00 40 1003.0
20260507063520 71 173 2.0 6.0 0.00 0.00 0.00 40 1003.0
20260507063021 70 117 5.0 5.0 0.00 0.00 0.00 44 1003.0
20260507062522 69 191 3.0 4.0 0.00 0.00 0.00 46 1003.0
20260507062022 68 73 4.0 7.0 0.00 0.00 0.00 46 1003.0
20260507061522 67 84 8.0 8.0 0.00 0.00 0.00 46 1003.0
20260507061021 66 110 7.0 10.0 0.00 0.00 0.00 48 1003.0
20260507060521 67 62 8.0 8.0 0.00 0.00 0.00 48 1003.0
20260507060021 67 95 4.0 8.0 0.00 0.00 0.00 48 1003.0
20260507055520 66 174 4.0 6.0 0.00 0.00 0.00 48 1003.0
20260507055020 65 65 5.0 9.0 0.00 0.00 0.00 50 1003.0
20260507054520 66 124 2.0 4.0 0.00 0.00 0.00 49 1003.0
20260507054021 64 61 7.0 7.0 0.00 0.00 0.00 50 1003.0
20260507053520 64 100 7.0 7.0 0.00 0.00 0.00 51 1003.0
20260507053020 63 82 4.0 7.0 0.00 0.00 0.00 52 1003.0
20260507052520 64 78 1.0 2.0 0.00 0.00 0.00 52 1003.0
20260507052020 64 117 0.0 2.0 0.00 0.00 0.00 53 1003.0
20260507051523 63 130 4.0 5.0 0.00 0.00 0.00 54 1003.0
20260507051021 63 110 3.0 4.0 0.00 0.00 0.00 54 1003.0
20260507050520 62 107 4.0 5.0 0.00 0.00 0.00 57 1003.0
20260507050022 61 80 4.0 4.0 0.00 0.00 0.00 57 1003.0
20260507045521 61 123 1.0 4.0 0.00 0.00 0.00 58 1003.0
20260507045020 59 81 6.0 6.0 0.00 0.00 0.00 59 1003.0
20260507044520 59 104 4.0 7.0 0.00 0.00 0.00 59 1003.0